www.pogodaiklimat.ru

Погода и климат >> Архив погоды >> Беларусь >> Столбцы


ПОГОДА в Столбцах

  • Прогноз погоды в Столбцах
  • Монитор погоды в Столбцах
  • Климат города

АРХИВ ПОГОДЫ в Столбцах

Время (UTC), дата Ветер
(напр.,м/с)
 
Видим.   Явления Облачность Т
(С)
Тd
(С)
f
(%)
Тe
(С)
Тes
(С)
Комфортность P
(гПа)
Po
(гПа)
Тmin
(С)
Tmax
(С)
R
(мм)
R24
(мм)
S
(см)
03 14.06 штиль 0 н/о н/о +14.9 +11.3 79 +15 +15 1009.0 986.6 +14.5
06 14.06 С 1 12 км 8/0
[Ac trans]
+19.6 +11.6 60 +22 +26 комфорт 1009.3 989.3 +14.5
09 14.06 С 3 11 км 6/6 300 м
[Cb calv]
+22.1 +10.0 46 +24 +29 комфорт 1009.7 989.9
12 14.06 В 1 13 км 8/8 570 м
[Cb calv]
+21.8 +13.2 58 +24 +28 комфорт 1010.3 990.5
15 14.06 ЮВ 1 7000 м дымка {ливн. осадки} 6/6 600 м
[Cb calv]
+18.9 +14.2 74 +21 +24 комфорт 1010.6 990.6
18 14.06 В 1 10 км {ливн. осадки} 6/0
[Ci fib]
+18.7 +13.6 72 +21 +21 комфорт 1011.4 991.3 +23.6 0.0
21 14.06 В 1 н/о н/о +15.0 +13.2 89 +15 +15 1012.0 989.5
00 15.06 штиль 0 н/о н/о +13.9 +12.6 92 +13 +13 1012.0 989.4
03 15.06 СВ 1 н/о н/о +14.6 +13.0 90 +15 +16 1012.0 989.5 +13.5
06 15.06 В 1 8000 м дымка 8/8 540 м
[Cb calv]
+17.9 +12.8 72 +19 +21 1012.2 992.1 +13.5
09 15.06 В 1 12 км 9/9 600 м
[Cb calv]
+19.9 +12.2 61 +23 +24 комфорт 1012.7 992.7
12 15.06 В 1 14 км 9/9 500 м
[Cb calv]
+18.8 +12.5 67 +21 +22 комфорт 1013.6 993.5
15 15.06 В 1 8000 м слабый ливневой дождь 9/9 630 м
[Cb calv]
+15.6 +13.6 88 +16 +17 1014.5 994.2
18 15.06 В 1 7000 м дымка {ливн. осадки} 8/8 660 м
[Cb calv]
+15.8 +13.6 87 +16 +16 1014.5 994.2 +21.8 1
21 15.06 СВ 1 н/о н/о +15.3 +12.4 83 +16 +16 1015.0 992.5
00 16.06 штиль 0 н/о н/о +14.5 +12.9 90 +14 +14 1015.0 992.4
03 16.06 СВ 1 н/о н/о +12.7 +11.3 91 +13 +13 1015.0 992.3 +12.6
06 16.06 СВ 1 6000 м дымка 8/8 540 м
[Cb calv]
+13.6 +11.8 89 +14 +15 1015.8 995.3 +12.5 0.3
09 16.06 СВ 2 10 км 8/8 630 м
[Cb calv]
+17.1 +11.8 71 +17 +21 1015.5 995.2
12 16.06 СВ 1 13 км 8/8 700 м
[Cb calv]
+17.4 +11.9 70 +18 +22 1016.1 995.8
15 16.06 СВ 2 11 км 6/6 300 м
[Cb calv]
+17.2 +11.9 71 +18 +20 1016.1 995.8
18 16.06 штиль 0 8000 м дымка 6/6 600 м
[Cb calv]
+15.8 +11.8 77 +16 +16 1016.4 996.0 +18.6
21 16.06 штиль 0 н/о н/о +15.0 +12.0 82 +15 +15 1017.0 994.4
00 17.06 штиль 0 н/о н/о +14.7 +11.5 81 +14 +14 1017.0 994.4
03 17.06 штиль 0 н/о н/о +14.5 +12.0 85 +14 +15 1017.0 994.4 +14.3
06 17.06 СВ 1 10 км 8/8 540 м
[Cb calv]
+17.3 +11.1 67 +18 +20 1016.8 996.5 +14.3
09 17.06 СВ 1 10 км 8/0
[Ci fib]
+20.9 +10.4 51 +24 +39 комфорт 1016.8 996.8
12 17.06 СВ 2 15 км 4/0
[Ci fib]
+24.0 +10.0 41 +25 +38 комфорт 1015.6 995.8
15 17.06 штиль 0 20 км 8/3 1000 м
[Cu hum Ci fib]
+24.9 +10.8 41 +26 +30 жарко 1014.6 994.9
18 17.06 Ю 3 15 км 6/0
[Ci fib]
+21.6 +12.2 55 +24 +24 комфорт 1015.3 995.3 +26.1
21 17.06 ЮВ 1 н/о н/о +17.7 +12.8 73 +19 +19 1016.0 993.6
00 18.06 штиль 0 н/о н/о +15.3 +12.6 84 +15 +15 1016.0 993.5
03 18.06 штиль 0 н/о н/о +15.4 +12.9 85 +15 +16 1017.0 994.4 +13.9
06 18.06 штиль 0 11 км 8/0
[Cs]
+18.3 +13.0 71 +19 +27 1017.0 996.8 +13.9
09 18.06 З 1 14 км 6/0
[Cs]
+25.2 +10.7 40 +26 +42 жарко 1016.4 996.6
12 18.06 СЗ 1 13 км гроза без осадков 9/6 600 м
[Cb calv Ci fib]
+27.5 +8.9 31 +28 +33 жарко 1015.7 996.1
15 18.06 С 2 15 км {гроза} 8/5 600 м
[Cb calv Ci fib]
+27.3 +9.6 33 +28 +30 жарко 1014.9 995.3
18 18.06 штиль 0 13 км {гроза} 8/5 600 м
[Cb calv Ci fib]
+25.1 +10.9 41 +26 +26 жарко 1015.5 995.8 +29.0
21 18.06 С 1 н/о н/о +21.5 +13.1 59 +24 +24 комфорт 1016.0 993.9
00 19.06 штиль 0 н/о н/о +19.6 +13.3 67 +21 +21 комфорт 1016.0 993.8
03 19.06 штиль 0 н/о н/о +18.4 +13.7 74 +19 +20 1017.0 994.7 +18.3
06 19.06 штиль 0 9000 м дымка 9/9 570 м
[Cb calv]
+19.2 +15.1 77 +21 +22 комфорт 1017.2 997.1 +17.9 0.4
09 19.06 З 2 12 км 6/6 600 м
[Cu med, cong]
+25.4 +13.0 46 +27 +34 жарко 1016.0 996.3
12 19.06 СЗ 2 14 км 8/8 600 м
[Cb calv]
+26.9 +12.2 40 +28 +31 жарко 1014.9 995.3
15 19.06 СЗ 5
{11}
12 км 8/8 600 м
[Cb calv]
+26.6 +9.5 34 +27 +28 жарко 1014.0 994.4
18 19.06 С 2 20 км 8/4 600 м
[Cb calv Ci fib]
+23.3 +8.6 39 +25 +25 комфорт 1014.9 995.0 +28.6
21 19.06 С 1 н/о н/о +19.2 +10.2 56 +21 +21 комфорт 1017.0 994.7
00 20.06 С 2 н/о н/о +17.2 +10.1 63 +18 +18 1018.0 995.5
03 20.06 штиль 0 н/о н/о +13.6 +10.2 80 +13 +14 1019.0 996.2 +13.2
06 20.06 СЗ 3 10 км 6 баллов +19.5 +10.5 56 +21 +23 комфорт 1019.0 996.7 +13.2
09 20.06 СЗ 4 10 км ясно +23.1 +4.1 29 +23 +34 комфорт 1018.0 995.9
12 20.06 СЗ 9
{15}
10 км ясно +25.6 +2.9 23 +24 +26 комфорт 1017.0 995.1
15 20.06 З 6
{15}
10 км ясно +26.1 +4.5 25 +25 +27 комфорт 1016.0 994.2
18 20.06 СЗ 4
{12}
10 км ясно +23.5 +5.8 32 +24 +24 комфорт 1016.0 994.0 +26.7
21 20.06 С 1 н/о н/о +18.4 +8.4 52 +20 +20 1018.0 995.6
00 21.06 штиль 0 н/о н/о +14.3 +8.3 67 +14 +14 1017.0 994.3

 

Местоположение метеостанции Столбцы (Минская область, Беларусь): широта 53.48 долгота 26.73 высота над уровнем моря 190 м.

В архиве по умолчанию представлена погода в Столбцах за последнюю неделю. Архивные данные за месяц целиком и за предыдущие месяцы, начиная с января 2011 года, Вы можете получить, выбрав интересующий диапазон дат из раскрывающегося списка и нажав кнопку "Ввод!".


*Определитесь, кто Вы:
робот инопланетянин человек

Внимание! Время в таблицах - всемирное. Для получения местного времени необходимо прибавить поправку, которая в Столбцах равна 3 ч.

Смотрите также архив погоды в соседних городах и на ближайших метеорологических станциях:

Погода в Новогрудке (Гродненская область, Беларусь) (60 км)
Погода в Барановичах (Брестская область, Беларусь) (64 км)
Погода в Воложине (Минская область, Беларусь) (69 км)
Погода в Слуцке (Минская область, Беларусь) (74 км)
Погода в Минске (город Минск, Беларусь) (78 км)
Погода в Ганцевичах (Брестская область, Беларусь) (83 км)
Погода в Марьиной Горке (Минская область, Беларусь) (93 км)
Погода в Лиде (Гродненская область, Беларусь) (104 км)
Погода в Вилейке (Минская область, Беларусь) (116 км)
Погода в Ошмянах (Гродненская область, Беларусь) (118 км)

Пояснения к столбцам:

Ветер - указаны скорость ветра в м/с - средняя за 10 мин, порывы в срок и между сроками (в фигурных скобках) и направление, откуда дует ветер: С - северный, СВ - северо-восточный, В - восточный, ЮВ - юго-восточный, Ю - южный, ЮЗ - юго-западный, З - западный, СЗ - северо-западный.
Видимость - горизонтальная дальность видимости в метрах или километрах. При видимости от 1 до 10 км при отсутствии осадков обычно наблюдается дымка, при ухудшении видимости до 1 км и менее - туман. В сухую погоду видимость может ухудшаться дымом, пылью или мглою.
Явления - указаны атмосферные явления, наблюдавшиеся в срок или в последний час перед сроком; фигурными скобками обозначены явления, наблюдавшиеся между сроками (за 1-3 часа до срока); квадратными скобками обозначены град или гололедные отложения с указанием их диаметра в мм.
Облачность - указаны через наклонную черту общая и нижняя облачность в баллах и высота нижней границы облаков в метрах; квадратными скобками обозначены формы облаков: Ci - перистые, Cs - перисто-слоистые, Cc - перисто-кучевые, Ac - высококучевые, As - высокослоистые, Sc - слоисто-кучевые, Ns - слоисто-дождевые, Cu - кучевые, Cb - кучево-дождевые. Подробнее классификацию облаков см. в Атласе облаков (PDF).
T - Температура воздуха - температура, измеренная на высоте 2 м над землей.
Td - Температура точки росы - температура, при понижении до которой содержащийся в воздухе водяной пар достигнет насыщения.
f - Относительная влажность воздуха - влажноcть воздуха, измеренная на высоте 2 м над землей.
Te - Эффективная температура - температура, которую ощущает одетый по сезону человек в тени. Характеристика душности погоды. При расчете учитывается влияние влажности воздуха и скорости ветра на теплоощущения человека.
Tes - Эффективная температура на солнце - температура, которую ощущает человек, с поправкой на солнечный нагрев. Характеристика знойности погоды. Зависит от высоты солнца над горизонтом, облачности и скорости ветра. Ночью, в пасмурную погоду, а также при ветре 12 м/с и более поправка равна нулю.
P - Атмосферное давление - приведенное к уровню моря атмосферное давление.
Po - Атмосферное давление - измеренное на уровне метеостанции атмосферное давление.
Tmin - Минимальная температура - минимум температуры воздуха на высоте 2 м над землей.
Tmax - Максимальная температура - максимум температуры воздуха на высоте 2 м над землей.
R - Количество осадков - Количество выпавших осадков за период времени, мм. При наведении курсора мыши на число - период времени, за который выпало указанное количество осадков.
R24 - Количество осадков - Количество выпавших осадков за 24 часа, мм.
S - Снежный покров - Высота снежного покрова, см. При наведении курсора мыши на число - состояние снежного покрова и степень покрытия местности в баллах.